Weather in Malaya Purga

Russia / Udmurt Republic     56°33′21″N   52°59′56″E
temp.,
°C
wind,
m/s
gust,
m/s
humid.,
%
clouds,
%
prec.,
mm/h
press.,
hPa
HPBL,
m
25 february, thu
thu2501:00−27nnw22960 0.0 103219
04:00−28nw12960 0.0 103319
07:00−30w11990 0.0 103219
10:00−24ssw239313 0.0 1031164
13:00−20s359041 0.0 1029317
16:00−20sse479153 0.0 1027362
19:00−22se4995100 0.0 1025244
22:00−21sse5995100 0.0 1024271
26 february, fri
fri2601:00−21se4897100 0.1 1023258
04:00−23se489897 0.1 1023185
07:00−24se489899 0.0 1022166
10:00−21se589699 0.1 1022354
13:00−19se5893100 0.0 1020417
16:00−18se5993100 0.0 1019462
19:00−20se51296100 0.0 1017300
22:00−20se61394100 0.1 1014381
27 february, sat
sat2701:00−19se71493100 0.0 1010425
04:00−16se81495100 0.6 1007564
07:00−16se71495100 2.0 1004575
10:00−14ese71293100 3.1 1003528
13:00−12ese61091100 0.2 1001530
16:00−10e6992100 0.6 1001522
19:00−11e5109498 0.3 1001356
22:00−11ene599492 0.4 1002308
28 february, sun
sun2801:00−12ne599493 0.2 1002305
04:00−15ne599491 0.3 1004282
07:00−16ne599496 0.1 1004269
10:00−15ne589396 0.1 1005320
13:00−12nne579299 0.0 1007400
16:00−12nne589199 0.1 1008456
19:00−14nne599297 0.1 1010411
22:00−17n499487 0.1 1012205
1 march, mon
mon101:00−20n479751 0.0 1014135
04:00−21n489726 0.0 1016167
07:00−22n489641 0.0 1017191
10:00−18nne589245 0.0 1019320
13:00−13n479066 0.0 1019422
16:00−10nnw368878 0.0 1020489
19:00−16wnw239547 0.0 101920
22:00−16wsw239653 0.0 101935